Tracking 20036 objects as of 21-Nov-2019
Live streaming from Space Station
objects crossing your sky now

THORAD AGENA D DEB

Track THORAD AGENA D DEB now!
10-day predictions


NORAD ID: 4519
Int'l Code: 1969-082FW
Perigee: 583.0 km
Apogee: 618.0 km
Inclination: 70.0 °
Period: 96.5 minutes
Semi major axis: 6971 km
RCS: 0.0529 m2 (small)
Launch date: September 30, 1969
Source: United States (US)
Launch site: AIR FORCE WESTERN TEST RANGE (AFWTR)

Note: This is SATELLITE DEBRIS
aabbcc
Your satellite tracking list
Your tracking list is empty




NASA's NSSDC Master Catalog

Two Line Element Set (TLE):
1  4519U 69082FW  19324.73990355 +.00001502 +00000-0 +15782-3 0  9998
2  4519 070.0443 091.4966 0025158 026.0716 334.1701 14.91467522625336
Source of the keplerian elements: AFSPC